Wind_Speed
8 9 8 7 3 3 5 5 4 2 3 3 8 8 9 12 18 19 18 17 18 18 18 16 10 7 10 13 14 13 12 10 9 8 5 3 1 0 1 6 9 9 10 11
4 10 7 4 7 7 4 4 3 1 3 1 4 8 8 13 14 13 14 15 15 15 16 16 14 8 2 8 10 11 10 9 8 5 5 3 2 4 7 11 13 14 14 17
11 4 5 10 10 7 5 3 1 2 2 5 8 5 4 5 8 10 14 14 15 15 14 12 10 8 7 3 1 3 5 7 9 11 11 12 13 14 15 16 18 17 18 20
7 4 9 11 7 2 2 2 3 5 3 6 2 4 4 4 4 8 10 11 13 14 13 14 13 10 10 7 4 6 9 12 14 16 17 18 18 21 21 26 26 25 21 20
4 7 7 10 3 2 2 3 2 3 6 2 2 4 6 6 3 3 5 9 11 12 12 11 9 7 9 10 12 12 14 15 16 16 18 21 25 29 32 31 31 29 27 24
5 2 4 3 2 4 3 1 2 2 1 4 4 3 6 5 3 2 2 6 9 9 10 9 9 9 9 10 12 15 18 19 20 22 24 23 24 25 28 29 34 33 36 34
3 3 1 4 1 3 7 4 2 2 2 3 3 6 3 3 2 1 1 3 6 7 7 9 11 13 16 18 20 20 21 21 21 23 24 23 23 25 28 28 29 31 29 31
0 3 6 6 4 2 4 3 1 4 3 7 5 5 2 4 4 4 2 2 4 8 10 11 14 18 20 26 27 29 31 33 32 31 33 33 33 33 35 33 33 33 32 32
1 3 2 8 4 3 2 2 2 0 1 3 1 1 5 6 3 4 4 5 10 14 17 18 19 21 25 27 27 28 30 32 32 34 37 40 42 44 45 41 39 35 32 32
2 1 1 2 1 10 4 5 0 2 3 6 3 4 7 8 4 2 5 8 11 17 21 22 24 24 24 25 27 29 31 33 35 36 39 41 48 51 51 43 42 38 33 30
2 0 3 2 2 2 3 2 3 1 2 3 6 3 1 4 3 5 12 12 18 23 26 27 27 24 25 27 30 30 30 30 30 30 31 36 42 43 36 36 40 40 40 33
2 2 0 1 3 3 1 2 2 1 1 4 5 8 1 5 3 7 10 16 22 24 27 28 28 28 30 32 33 33 33 32 30 32 35 36 36 33 33 33 31 31 30 29
5 1 0 2 3 3 4 3 3 2 1 7 7 5 3 3 6 11 14 20 24 27 28 29 29 31 34 35 34 36 31 31 35 35 32 32 29 32 33 32 31 28 28 29
5 3 4 4 4 1 4 6 8 5 4 11 13 21 16 12 15 16 21 26 29 31 31 32 33 36 37 38 36 34 33 31 31 29 28 29 30 29 28 27 28 33 31 30
1 3 4 7 8 6 8 10 9 11 14 9 16 15 16 15 13 18 21 26 32 36 37 36 37 40 41 38 35 32 33 28 30 33 33 34 33 31 31 30 28 28 26 26
1 2 1 4 4 6 10 11 11 13 11 10 11 16 9 16 17 24 25 31 34 36 38 39 43 42 39 36 34 30 35 36 34 33 34 34 32 30 30 27 27 28 26 27
3 4 2 3 3 7 11 6 5 3 4 6 9 16 17 14 24 24 27 31 34 36 40 45 43 38 36 34 32 37 38 35 33 34 33 31 30 30 28 27 25 24 25 25
5 5 2 3 2 4 4 3 1 4 8 11 14 10 14 20 24 24 27 29 32 39 42 44 39 37 36 38 39 39 37 35 32 33 31 29 28 27 27 25 25 25 25 23
3 4 2 3 3 8 3 4 3 3 10 12 4 13 19 22 22 24 28 30 34 37 40 38 36 37 40 39 38 37 35 32 30 31 29 27 25 25 24 23 23 23 22 22
5 2 3 3 3 4 2 6 3 3 5 6 9 16 22 19 11 17 36 35 36 37 37 35 39 40 39 38 34 34 33 32 30 28 27 25 23 22 21 20 21 19 19 22
4 2 7 4 5 6 4 7 6 3 6 9 13 18 20 14 20 33 35 37 38 38 35 36 38 38 38 37 32 33 32 31 27 27 24 19 19 17 16 20 16 16 15 14
5 5 3 3 4 4 10 5 4 6 8 12 16 18 19 22 28 31 33 36 38 39 37 38 40 39 38 31 31 30 30 27 25 23 16 17 16 15 16 17 16 15 15 14
4 4 3 7 3 2 12 11 10 14 14 16 15 20 20 24 29 30 34 37 37 37 38 39 38 38 34 29 30 30 27 23 23 16 14 14 12 11 15 15 12 10 10 9
4 5 3 3 3 9 8 10 14 13 12 17 19 20 24 23 26 30 33 35 35 36 38 38 36 36 34 30 28 25 21 22 17 14 13 10 11 13 9 10 10 9 6 3
1 10 5 5 11 11 7 6 7 10 15 18 18 21 26 24 26 28 32 33 34 34 35 34 34 34 30 28 26 25 21 15 12 11 8 11 8 10 11 9 11 7 5 4
10 6 5 4 6 5 8 6 8 14 15 16 19 23 24 24 27 29 30 30 30 33 32 33 32 30 29 27 25 22 19 13 10 7 8 10 9 10 9 9 11 9 9 9
Wind_Direction
33 62 40 0 27 95 111 108 115 154 56 99 94 89 45 35 49 49 48 36 31 30 21 11 336 304 257 229 207 200 198 196 200 201 208 190 191 258 317 333 329 329 331 336
85 41 355 79 94 78 96 109 58 249 28 153 159 96 62 47 47 46 48 45 38 34 33 34 33 39 121 188 193 200 207 216 218 227 216 209 304 315 312 311 315 313 312 318
86 49 67 77 65 80 61 89 160 280 4 86 149 157 125 66 58 55 53 56 49 41 35 41 57 73 69 78 159 259 284 290 279 272 268 274 281 292 295 304 310 308 305 306
73 28 63 67 64 339 235 343 290 279 250 282 232 289 169 124 82 55 42 43 43 41 41 41 41 33 16 358 304 271 263 269 263 262 265 270 276 283 290 294 298 302 299 291
94 60 58 57 46 315 53 342 324 302 244 273 163 248 138 192 146 73 34 35 32 31 26 24 23 8 353 335 324 310 296 290 283 281 284 289 290 292 291 289 289 288 292 285
106 84 34 357 95 44 310 210 80 87 189 239 129 324 177 189 179 156 36 25 17 13 10 10 14 7 351 327 312 302 296 294 286 279 281 289 295 301 301 300 298 294 291 287
110 57 6 12 42 47 21 352 331 207 226 308 141 281 4 148 87 30 38 31 24 20 8 359 352 348 337 327 317 309 301 294 290 284 279 277 284 299 301 301 300 299 295 289
221 196 6 356 28 348 39 4 309 293 285 308 280 256 117 111 84 73 85 30 15 356 344 334 326 321 322 316 306 300 296 293 292 287 283 287 294 301 308 300 295 292 293 288
174 132 78 61 41 345 87 74 15 242 237 264 241 194 199 176 91 51 14 333 337 338 326 320 319 317 319 320 318 317 304 296 291 286 289 292 293 294 298 296 289 288 286 283
128 189 58 87 267 55 67 122 207 35 305 295 239 268 287 202 234 266 299 316 324 325 323 319 319 317 320 317 315 312 306 300 300 294 286 290 293 294 296 290 281 280 281 283
102 84 132 219 48 119 144 125 77 358 256 278 304 300 147 267 195 337 330 321 322 324 322 320 317 314 314 313 312 308 305 300 295 293 293 296 296 294 290 285 283 280 277 269
63 121 102 34 316 290 249 149 121 167 231 246 282 289 31 170 159 328 310 320 321 320 318 317 316 315 316 313 310 308 305 301 297 294 295 296 296 292 290 291 287 282 273 260
172 56 9 169 158 178 239 193 147 121 203 245 275 272 178 198 275 315 319 324 320 319 318 315 314 312 313 312 309 307 303 298 297 295 296 299 296 294 293 288 283 276 279 275
133 146 219 249 295 128 224 223 211 239 251 285 266 289 299 310 326 325 327 325 323 323 321 318 313 313 313 311 308 306 303 300 300 298 296 294 294 299 296 291 284 283 279 270
145 237 205 253 253 230 257 260 263 250 273 270 294 296 305 321 317 318 321 320 324 322 322 320 316 313 312 311 309 307 306 305 303 305 304 303 304 306 304 297 284 283 279 275
40 204 218 269 275 243 260 267 273 278 279 264 283 295 342 314 310 321 323 321 322 321 320 318 316 313 311 310 309 306 308 313 312 308 307 305 304 307 304 299 290 287 280 273
173 162 189 261 351 316 276 273 210 265 244 283 288 313 318 311 316 322 316 319 319 319 318 318 316 313 311 310 307 309 313 315 311 310 309 308 305 303 303 302 289 286 284 280
147 151 190 290 303 252 78 94 149 252 284 279 297 306 311 314 315 312 314 316 316 319 318 317 316 313 313 314 316 314 315 314 311 309 311 310 308 304 301 298 291 286 277 275
192 157 178 261 239 300 179 192 194 190 282 300 245 303 311 314 312 309 325 321 316 317 317 314 315 315 319 322 322 319 319 317 312 313 314 312 308 306 303 298 294 289 283 273
121 79 227 167 264 268 114 175 165 142 274 203 270 298 310 320 309 316 325 323 320 319 318 315 320 320 323 324 325 324 323 321 315 320 313 310 307 305 304 304 303 297 286 281
167 175 225 219 246 274 187 156 154 283 307 310 296 295 306 303 306 311 318 322 322 322 321 321 325 320 324 328 328 326 324 323 321 317 314 307 307 309 309 310 307 298 291 279
192 175 193 172 229 266 163 139 203 278 285 300 303 308 306 306 310 315 321 322 324 325 327 332 329 329 331 334 333 328 322 328 332 326 317 311 312 311 306 308 307 300 294 289
212 214 189 203 239 159 195 240 268 287 285 299 303 318 315 308 313 319 322 324 326 327 328 334 333 331 334 339 338 332 330 334 329 326 321 319 319 324 318 311 318 319 299 296
211 181 225 196 205 242 254 279 290 287 296 313 318 317 318 310 317 321 324 326 326 333 332 336 337 334 336 342 342 342 343 335 334 330 329 333 342 335 354 359 345 336 337 331
204 163 200 246 274 278 274 300 300 301 314 318 317 317 315 318 322 325 325 327 333 334 337 339 342 340 343 346 347 346 343 337 345 339 360 354 345 13 20 23 15 22 19 68
189 188 188 229 218 229 276 306 305 308 315 321 316 316 318 324 326 328 327 332 334 335 338 344 346 347 346 349 354 1 0 2 357 10 12 10 35 16 34 27 26 58 72 82
Height
1542 1542 1551 1552 1550 1549 1550 1552 1554 1555 1556 1556 1564 1565 1567 1567 1563 1562 1560 1556 1553 1549 1547 1544 1542 1542 1544 1546 1549 1551 1553 1553 1554 1554 1555 1555 1555 1553 1551 1551 1551 1550 1549 1547
1545 1551 1553 1552 1551 1550 1550 1553 1557 1555 1555 1555 1564 1567 1568 1567 1566 1566 1564 1561 1558 1555 1551 1549 1548 1547 1548 1550 1552 1553 1554 1554 1555 1555 1555 1555 1554 1552 1551 1550 1550 1548 1546 1544
1548 1557 1554 1551 1553 1553 1556 1556 1557 1557 1556 1558 1561 1565 1566 1569 1568 1567 1565 1564 1561 1558 1556 1553 1552 1552 1553 1553 1554 1555 1555 1555 1555 1554 1553 1553 1552 1549 1547 1546 1546 1545 1542 1540
1554 1558 1555 1553 1556 1557 1558 1557 1556 1556 1558 1556 1561 1557 1568 1567 1567 1566 1566 1565 1564 1562 1560 1557 1555 1553 1552 1551 1551 1551 1551 1551 1551 1550 1549 1548 1546 1544 1543 1541 1540 1538 1535 1535
1561 1558 1557 1556 1560 1558 1558 1558 1559 1559 1556 1560 1560 1560 1563 1566 1566 1566 1567 1567 1565 1564 1562 1560 1558 1555 1554 1552 1550 1548 1547 1547 1546 1545 1545 1544 1541 1540 1537 1536 1533 1532 1529 1528
1557 1560 1559 1559 1560 1560 1559 1558 1561 1563 1560 1561 1562 1562 1558 1561 1564 1566 1567 1567 1566 1565 1564 1562 1560 1558 1556 1554 1553 1551 1548 1547 1545 1543 1542 1539 1536 1534 1531 1529 1526 1522 1520 1519
1559 1561 1561 1561 1558 1559 1558 1559 1562 1564 1562 1561 1564 1562 1557 1564 1565 1566 1567 1568 1567 1565 1564 1562 1560 1557 1555 1553 1551 1549 1547 1544 1542 1539 1536 1533 1531 1528 1524 1521 1518 1514 1511 1510
1561 1566 1564 1564 1564 1565 1567 1566 1568 1577 1572 1562 1561 1559 1558 1566 1568 1568 1568 1568 1567 1566 1563 1561 1559 1556 1553 1550 1547 1544 1541 1537 1535 1532 1529 1526 1522 1519 1515 1513 1510 1507 1505 1504
1563 1568 1568 1568 1567 1567 1567 1571 1576 1576 1583 1578 1559 1564 1564 1565 1566 1567 1567 1567 1565 1563 1562 1559 1556 1552 1547 1543 1540 1536 1532 1529 1526 1523 1519 1515 1512 1509 1506 1503 1501 1498 1496 1495
1565 1569 1569 1569 1569 1569 1566 1575 1575 1576 1581 1573 1558 1561 1553 1563 1563 1566 1566 1565 1563 1561 1558 1554 1550 1546 1541 1538 1534 1530 1526 1521 1518 1514 1510 1505 1501 1498 1494 1491 1489 1489 1488 1487
1565 1569 1571 1570 1569 1570 1571 1573 1578 1579 1579 1579 1570 1556 1556 1559 1562 1563 1563 1563 1561 1557 1553 1548 1544 1540 1536 1532 1527 1522 1517 1513 1509 1505 1500 1495 1490 1486 1482 1479 1478 1476 1476 1478
1569 1570 1571 1573 1572 1574 1573 1573 1574 1580 1579 1576 1578 1563 1558 1559 1562 1564 1563 1561 1558 1553 1549 1543 1538 1533 1528 1524 1518 1513 1508 1503 1500 1496 1490 1484 1479 1475 1471 1468 1466 1464 1463 1465
1567 1573 1578 1573 1573 1572 1571 1571 1573 1578 1582 1577 1578 1561 1560 1561 1562 1562 1560 1557 1553 1548 1543 1537 1532 1526 1521 1515 1510 1504 1499 1495 1490 1485 1480 1475 1470 1466 1462 1459 1457 1455 1455 1454
1565 1572 1568 1570 1566 1567 1572 1570 1570 1572 1578 1565 1563 1556 1554 1555 1557 1557 1555 1551 1546 1541 1536 1530 1524 1518 1512 1506 1500 1494 1488 1484 1480 1475 1471 1466 1462 1458 1454 1451 1448 1446 1445 1445
1565 1567 1571 1567 1566 1569 1566 1565 1564 1568 1562 1569 1557 1559 1554 1555 1556 1554 1552 1547 1541 1534 1528 1523 1517 1510 1503 1496 1490 1485 1479 1475 1471 1465 1461 1456 1452 1448 1444 1441 1439 1437 1436 1435
1567 1566 1570 1566 1564 1566 1565 1560 1562 1561 1561 1563 1560 1556 1556 1557 1553 1550 1547 1541 1535 1528 1522 1516 1509 1501 1494 1488 1481 1476 1471 1465 1461 1456 1451 1447 1443 1440 1436 1433 1430 1429 1427 1426
1565 1566 1569 1563 1567 1565 1562 1556 1560 1561 1561 1561 1561 1553 1555 1553 1550 1547 1542 1536 1530 1523 1516 1507 1499 1493 1486 1479 1474 1468 1462 1457 1452 1447 1443 1438 1435 1432 1428 1425 1422 1420 1418 1417
1566 1567 1569 1563 1567 1568 1559 1562 1562 1562 1560 1558 1555 1555 1553 1550 1546 1543 1538 1532 1525 1518 1509 1499 1492 1484 1478 1471 1465 1460 1454 1449 1444 1438 1434 1430 1427 1423 1420 1417 1415 1412 1411 1410
1564 1564 1567 1568 1567 1554 1560 1561 1564 1566 1559 1555 1555 1553 1549 1545 1541 1536 1533 1528 1521 1513 1503 1494 1485 1478 1469 1463 1457 1451 1445 1440 1435 1430 1426 1423 1420 1416 1413 1410 1408 1405 1404 1403
1565 1565 1563 1571 1567 1561 1554 1559 1561 1563 1560 1552 1552 1549 1544 1542 1535 1525 1524 1520 1513 1506 1497 1487 1478 1471 1463 1456 1450 1444 1438 1432 1427 1423 1419 1416 1414 1410 1407 1404 1401 1399 1398 1396
1561 1563 1559 1561 1562 1553 1554 1557 1560 1561 1554 1549 1548 1544 1541 1538 1533 1525 1519 1512 1505 1497 1488 1480 1472 1465 1457 1450 1444 1438 1432 1426 1421 1417 1413 1410 1408 1406 1403 1399 1397 1394 1393 1391
1553 1560 1560 1565 1563 1559 1553 1557 1559 1549 1546 1545 1543 1540 1536 1533 1527 1521 1515 1507 1498 1488 1479 1473 1465 1458 1451 1445 1439 1433 1427 1421 1416 1412 1409 1406 1404 1402 1399 1396 1393 1390 1388 1386
1555 1551 1552 1555 1547 1547 1548 1547 1547 1545 1544 1541 1539 1535 1532 1528 1522 1517 1509 1501 1493 1484 1476 1469 1461 1453 1446 1439 1434 1428 1422 1417 1413 1409 1406 1404 1402 1399 1396 1392 1389 1386 1384 1383
1549 1551 1549 1550 1543 1543 1544 1544 1543 1542 1540 1538 1535 1531 1528 1523 1518 1511 1504 1495 1487 1479 1471 1464 1457 1449 1441 1435 1429 1425 1419 1414 1410 1407 1404 1402 1399 1397 1394 1391 1388 1385 1383 1381
1543 1547 1544 1544 1541 1540 1540 1540 1539 1538 1536 1534 1531 1528 1524 1519 1513 1507 1498 1490 1482 1475 1468 1461 1454 1446 1439 1433 1427 1421 1415 1412 1408 1406 1404 1402 1399 1396 1394 1391 1389 1386 1384 1383
1538 1536 1539 1537 1536 1537 1537 1537 1536 1535 1533 1531 1528 1524 1520 1515 1509 1502 1494 1486 1479 1472 1465 1458 1451 1444 1438 1432 1425 1419 1415 1411 1409 1407 1404 1402 1400 1398 1395 1393 1391 1389 1387 1386